Location: Niedergestelen
(46.3129°N, 7.7822°E)
Time: 20:38:26
(UTC+00:00)

USA 215 - Pass Details

Date: 01 December 2020
Orbit: 1099 x 1109 km, 123.0° (Epoch: 22 January)

Event Time Altitude Azimuth Distance (km) Brightness Sun altitude
Exits shadow 16:59:28 16° 76° (ENE) 2,531 4.5 -12.6°
Maximum altitude 17:03:41 30° 128° (SE) 1,843 4.2 -13.3°
Drops below altitude 10° 17:09:17 10° 187° (S) 2,947 5.8 -14.2°
Sets 17:12:06 0° 198° (SSW) 3,900 6.7 -14.7°
